User: anonymous   Login
Location: Unspecified
(0.0000°N, 0.0000°E)
Time: 19:15:01
(UTC+00:00)
Language:

SOMP - Orbit

View from above orbital plane
View from above orbital plane
View from above satellite
View from above satellite

Ground track
Ground track

The orbit data is extracted from the following two-line orbital elements,

1 39135U 13015F   18139.86820673  .00000793  00000-0  50178-4 0  9997
2 39135  64.8700 231.5029 0024701 237.8791 121.9937 15.16637670280353
Epoch (UTC): 19 May 2018 20:50:13
Eccentricity: 0.0024701
inclination: 64.8700°
perigee height: 499 km
apogee height: 533 km
right ascension of ascending node: 231.5029°
argument of perigee: 237.8791°
revolutions per day: 15.16637670
mean anomaly at epoch: 121.9937°
orbit number at epoch: 28035

The dashed part of the orbit path shows where the satellite is in the earth's shadow,  

DLR